Pierre, SD

4:03 PM CST on November 14, 2019 (GMT -0600)
Pierre Regional

Weather History for KPIR - June, 2019

Change the Weather History Date:

Wednesday, June 12, 2019

  Actual Average Record
Temperature  
Mean Temperature 61 °F 66 °F  
Max Temperature 74 °F 79 °F 104 °F (1956)
Min Temperature 47 °F 54 °F 39 °F (1969)
Degree Days  
Heating Degree Days 4    
Month to date heating degree days 26  
Since 1 June heating degree days 26  
Since 1 July heating degree days 8152  
Cooling Degree Days 0    
Month to date cooling degree days 39  
Year to date cooling degree days 50  
Since 1 June cooling degree days 39  
Growing Degree Days 10 (Base 50)    
Moisture  
Dew Point 48 °F    
Average Humidity 70    
Maximum Humidity 100    
Minimum Humidity 40    
Precipitation  
Precipitation 0.00 in 0.12 in 1.47 in (1977)
Month to date precipitation 0.01 1.57  
Year to date precipitation 13.86 8.77  
Snow  
Snow 0.00 in 0.00 in 0.00 in ()
Month to date snowfall 0.0 0.0  
Since 1 July snowfall 66.3 31.9  
Snow Depth 0.00 in    
Sea Level Pressure  
Sea Level Pressure 30.11 in    
Wind  
Wind Speed 7 mph (NW)    
Max Wind Speed 14 mph    
Max Gust Speed 19 mph    
Visibility 10 miles    
Events      
T = Trace of Precipitation, MM = Missing Value Source: NWS Daily Summary

Daily Weather History Graph

Daily Weather History Graph

Search for Another Location

Airport or City:

Astronomy

Jun. 12, 2019 Rise Set
Actual Time 5:56 AM CDT 9:25 PM CDT
Civil Twilight 5:19 AM CDT 10:02 PM CDT
Nautical Twilight 4:31 AM CDT 10:50 PM CDT
Astronomical Twilight 3:30 AM CDT 11:52 PM CDT
Moon 4:22 PM CDT (6/12) 3:25 AM CDT (6/12)
Length of Visible Light 16h 42m
Length of Day
15h 29m
Waxing Gibbous, 77% of the Moon is Illuminated
Jun 12
Waxing Gibbous
Jun 17
Full
Jun 25
Last Quarter
Jul 2
New
Jul 9
First Quarter

Hourly Weather History & Observations

Time (CDT) Temp. Dew Point Humidity Pressure Visibility Wind Dir Wind Speed Gust Speed Precip Events Conditions
12:53 AM 55.0 °F 48.9 °F 80% 30.09 in 10.0 mi NNW 10.4 mph - N/A   Clear
1:53 AM 51.1 °F 48.0 °F 89% 30.10 in 10.0 mi NW 9.2 mph - N/A   Partly Cloudy
2:53 AM 53.1 °F 50.0 °F 89% 30.11 in 10.0 mi NNW 10.4 mph - N/A   Mostly Cloudy
3:53 AM 52.0 °F 48.0 °F 86% 30.12 in 10.0 mi North 9.2 mph - N/A   Clear
4:53 AM 51.1 °F 48.0 °F 89% 30.14 in 10.0 mi North 9.2 mph - N/A   Clear
5:53 AM 50.0 °F 46.9 °F 89% 30.16 in 10.0 mi North 6.9 mph - N/A   Clear
6:53 AM 48.9 °F 48.0 °F 97% 30.18 in 10.0 mi WNW 5.8 mph - N/A   Clear
7:53 AM 55.0 °F 50.0 °F 83% 30.18 in 10.0 mi NNW 5.8 mph - N/A   Clear
8:53 AM 57.9 °F 48.0 °F 70% 30.19 in 10.0 mi SE 3.5 mph - N/A   Scattered Clouds
9:53 AM 60.1 °F 46.9 °F 62% 30.20 in 10.0 mi Calm Calm - N/A   Clear
10:53 AM 63.0 °F 46.9 °F 56% 30.19 in 10.0 mi Variable 3.5 mph - N/A   Partly Cloudy
11:53 AM 66.0 °F 48.9 °F 54% 30.17 in 10.0 mi West 4.6 mph - N/A   Overcast
12:53 PM 68.0 °F 45.0 °F 43% 30.15 in 10.0 mi NNW 5.8 mph - N/A   Mostly Cloudy
1:53 PM 69.1 °F 45.0 °F 42% 30.13 in 10.0 mi Calm Calm - N/A   Partly Cloudy
2:53 PM 72.0 °F 46.0 °F 40% 30.10 in 10.0 mi NNW 6.9 mph - N/A   Partly Cloudy
3:53 PM 71.1 °F 46.0 °F 41% 30.09 in 10.0 mi West 6.9 mph - N/A   Scattered Clouds
4:53 PM 72.0 °F 46.9 °F 41% 30.06 in 10.0 mi NW 6.9 mph - N/A   Partly Cloudy
5:53 PM 73.0 °F 48.0 °F 41% 30.05 in 10.0 mi WNW 11.5 mph - N/A   Mostly Cloudy
6:53 PM 72.0 °F 46.0 °F 40% 30.04 in 10.0 mi WNW 12.7 mph - N/A   Clear
7:53 PM 71.1 °F 46.9 °F 42% 30.03 in 10.0 mi WNW 9.2 mph - N/A   Clear
8:53 PM 62.1 °F 52.0 °F 70% 30.04 in 10.0 mi SE 12.7 mph - N/A   Clear
10:53 PM 55.0 °F 48.0 °F 77% 30.05 in 10.0 mi SE 6.9 mph - N/A   Clear
11:53 PM 53.1 °F 46.9 °F 80% 30.04 in 10.0 mi SSE 6.9 mph - N/A   Clear